CW6871 Weather Reports


Display with metric or nautical units.
time (UTC)temp
F
wind
direction
speed
MPH
gust
MPH
rain 1hr
in
rain 24hr
in
rain mn
in
humidity
%
barometer
mb
20260507012121 56 143 0.0 0.0 0.00 0.00 0.00 81 1020.0
20260507011128 56 168 0.0 0.0 0.00 0.00 0.00 81 1020.0
20260507010140 56 173 0.0 0.0 0.00 0.00 0.00 80 1020.1
20260507005126 56 156 0.0 0.0 0.00 0.00 0.00 80 1020.1
20260507004134 56 157 0.0 0.0 0.00 0.00 0.00 79 1020.1
20260507003123 56 74 0.0 0.0 0.00 0.00 0.00 79 1020.1
20260507002143 56 209 0.0 0.0 0.00 0.00 0.00 79 1020.1
20260507000110 56 65 0.0 0.0 0.00 0.00 0.00 80 1020.0
20260506235108 56 172 0.0 0.0 0.00 0.00 0.00 79 1020.0
20260506234109 56 174 0.0 0.0 0.00 0.00 0.00 78 1020.0
20260506233109 56 172 0.0 0.0 0.00 0.00 0.00 77 1020.0
20260506232140 56 141 0.0 0.0 0.00 0.00 0.00 77 1020.1
20260506231140 56 162 0.0 0.0 0.00 0.00 0.00 77 1020.0
20260506230134 56 151 0.0 0.0 0.00 0.00 0.00 78 1020.1
20260506225113 56 220 0.0 0.0 0.00 0.00 0.00 78 1020.2
20260506224119 56 142 0.0 0.0 0.00 0.00 0.00 79 1020.2
20260506223128 56 122 0.0 0.0 0.00 0.00 0.00 80 1020.2
20260506222132 56 104 0.0 0.0 0.00 0.00 0.00 80 1020.4
20260506221114 56 157 0.0 0.0 0.00 0.00 0.00 79 1020.4
20260506220118 56 182 0.0 0.0 0.00 0.00 0.00 79 1020.7
20260506215113 56 168 0.0 0.0 0.00 0.00 0.00 81 1020.4
20260506214114 56 167 0.0 0.0 0.00 0.00 0.00 82 1020.5
20260506213150 56 153 0.0 0.0 0.00 0.00 0.00 83 1020.5
20260506212132 55 157 0.0 0.0 0.00 0.00 0.00 82 1020.6
20260506211118 55 178 0.0 0.0 0.00 0.00 0.00 83 1020.6
20260506210113 55 162 0.0 0.0 0.00 0.00 0.00 84 1020.5
20260506205146 55 154 0.0 0.0 0.00 0.00 0.00 84 1020.5
20260506204118 55 109 0.0 0.0 0.00 0.00 0.00 85 1020.5
20260506202110 55 141 0.0 0.0 0.00 0.00 0.00 84 1020.5
20260506201119 55 170 0.0 0.0 0.00 0.00 0.00 85 1020.5
20260506195146 55 179 0.0 0.0 0.00 0.00 0.00 86 1020.3
20260506192148 54 168 0.0 0.0 0.00 0.00 0.00 89 1020.3
20260506191112 54 171 0.0 0.0 0.00 0.00 0.00 89 1020.2
20260506190115 54 185 0.0 0.0 0.00 0.00 0.00 90 1020.1
20260506185140 54 144 0.0 0.0 0.00 0.00 0.00 92 1020.1
20260506183151 53 179 0.0 0.0 0.00 0.00 0.00 92 1020.0
20260506182138 53 168 0.0 0.0 0.00 0.00 0.00 92 1020.0
20260506181106 53 170 0.0 0.0 0.00 0.00 0.00 92 1020.1
20260506180121 54 158 0.0 0.0 0.00 0.00 0.00 91 1020.0
20260506175137 54 128 0.0 0.0 0.00 0.00 0.00 92 1019.6
20260506174150 54 137 0.0 0.0 0.00 0.00 0.00 91 1019.5
20260506173132 53 161 0.0 0.0 0.00 0.00 0.00 92 1019.8
20260506172129 53 145 0.0 0.0 0.00 0.00 0.00 92 1020.0
20260506171147 53 174 0.0 0.0 0.00 0.00 0.00 92 1019.8
20260506165142 53 176 0.0 0.0 0.00 0.00 0.00 92 1019.8
20260506164109 53 179 0.0 0.0 0.00 0.00 0.00 92 1019.8
20260506163119 53 179 0.0 0.0 0.00 0.00 0.00 92 1019.7
20260506162138 53 157 0.0 0.0 0.00 0.00 0.00 92 1019.4
20260506161118 53 182 0.0 0.0 0.00 0.00 0.00 92 1019.5
20260506160152 53 183 0.0 0.0 0.00 0.00 0.00 92 1019.2
20260506155135 53 146 0.0 0.0 0.00 0.00 0.00 92 1019.0
20260506154150 53 97 0.0 0.0 0.00 0.00 0.00 92 1019.2
20260506152138 53 141 0.0 0.0 0.00 0.00 0.00 92 1019.4
20260506151115 53 141 0.0 0.0 0.00 0.00 0.00 92 1019.5
20260506150132 53 138 0.0 0.0 0.00 0.00 0.00 92 1019.1
20260506145139 53 106 0.0 0.0 0.00 0.00 0.00 92 1019.0
20260506144141 53 151 0.0 0.0 0.00 0.00 0.00 92 1019.1
20260506143135 53 156 0.0 0.0 0.00 0.00 0.00 92 1019.1
20260506141106 53 157 0.0 0.0 0.00 0.00 0.00 92 1019.1
20260506140134 53 181 0.0 0.0 0.00 0.00 0.00 92 1018.9
20260506135106 53 174 0.0 0.0 0.00 0.00 0.00 92 1019.0
20260506134129 53 218 0.0 0.0 0.00 0.00 0.00 91 1019.0
20260506133113 53 165 0.0 0.0 0.00 0.00 0.00 91 1018.8
20260506131107 53 170 0.0 0.0 0.00 0.00 0.00 91 1018.6
20260506130144 53 170 0.0 0.0 0.00 0.00 0.00 91 1018.4
20260506125146 53 170 0.0 0.0 0.00 0.00 0.00 91 1018.3
20260506124129 53 184 0.0 0.0 0.00 0.00 0.00 91 1018.4
20260506123150 53 185 0.0 0.0 0.00 0.00 0.00 91 1018.5
20260506122142 53 166 0.0 0.0 0.00 0.00 0.00 91 1018.3
20260506121120 53 166 0.0 0.0 0.00 0.00 0.00 91 1018.3
20260506120146 53 166 0.0 0.0 0.00 0.00 0.00 91 1018.2
20260506115113 53 178 0.0 0.0 0.00 0.00 0.00 92 1018.2
20260506114129 53 178 0.0 0.0 0.00 0.00 0.00 92 1018.3
20260506112144 53 155 0.0 0.0 0.00 0.00 0.00 92 1018.0
20260506111118 53 156 0.0 0.0 0.00 0.00 0.00 92 1017.9
20260506110127 52 155 0.0 0.0 0.00 0.00 0.00 93 1017.8
20260506105121 52 158 0.0 0.0 0.00 0.00 0.00 94 1017.6
20260506104113 52 173 0.0 0.0 0.00 0.00 0.00 94 1017.7
20260506103120 52 174 0.0 0.0 0.00 0.00 0.00 95 1017.6
20260506102140 52 169 0.0 0.0 0.00 0.00 0.00 95 1017.6
20260506101144 51 169 0.0 0.0 0.00 0.00 0.00 94 1017.4
20260506100138 51 169 0.0 0.0 0.00 0.00 0.00 94 1017.3
20260506095121 51 169 0.0 0.0 0.00 0.00 0.00 93 1017.3
20260506094141 51 169 0.0 0.0 0.00 0.00 0.00 93 1017.1
20260506092149 52 169 0.0 0.0 0.00 0.00 0.00 93 1017.0
20260506091119 52 169 0.0 0.0 0.00 0.00 0.00 93 1016.9
20260506090109 52 169 0.0 0.0 0.00 0.00 0.00 93 1016.9
20260506085144 52 169 0.0 0.0 0.00 0.00 0.00 93 1016.8
20260506084110 53 169 0.0 0.0 0.00 0.00 0.00 93 1016.7
20260506083128 53 169 0.0 0.0 0.00 0.00 0.00 93 1016.7
20260506082109 53 169 0.0 0.0 0.00 0.00 0.00 93 1016.6
20260506080123 53 169 0.0 0.0 0.00 0.00 0.00 92 1016.4
20260506072119 53 169 0.0 0.0 0.00 0.00 0.00 91 1016.3
20260506070146 54 169 0.0 0.0 0.00 0.00 0.00 90 1016.2
20260506062137 55 169 0.0 0.0 0.00 0.00 0.00 89 1016.0
20260506061147 55 169 0.0 0.0 0.00 0.00 0.00 89 1015.9
20260506060134 55 169 0.0 0.0 0.00 0.00 0.00 88 1015.7
20260506045120 56 169 0.0 0.0 0.00 0.00 0.00 86 1015.2
20260506044129 56 170 0.0 0.0 0.00 0.00 0.00 85 1015.1
20260506043121 56 170 0.0 0.0 0.00 0.00 0.00 84 1015.1
20260506042148 57 169 0.0 0.0 0.00 0.00 0.00 83 1015.1
20260506041138 57 169 0.0 0.0 0.00 0.00 0.00 83 1015.0
20260506040137 58 170 0.0 0.0 0.00 0.00 0.00 82 1014.9
20260506035121 58 170 0.0 0.0 0.00 0.00 0.00 81 1014.9
20260506034121 59 169 0.0 0.0 0.00 0.00 0.00 80 1014.9
20260506033145 59 169 0.0 0.0 0.00 0.00 0.00 79 1014.9
20260506032123 60 169 0.0 0.0 0.00 0.00 0.00 78 1014.7
20260506025117 61 170 0.0 0.0 0.00 0.00 0.00 75 1014.6
20260506024137 61 169 0.0 0.0 0.00 0.00 0.00 74 1014.6
20260506023116 62 173 0.0 0.0 0.00 0.00 0.00 74 1014.6
20260506021111 62 142 0.0 0.0 0.00 0.00 0.00 74 1014.6
20260506020112 62 130 0.0 0.0 0.00 0.00 0.00 74 1014.6
20260506015114 62 130 0.0 0.0 0.00 0.00 0.00 73 1014.5